Preview of NWS' New Version of Forecast
This preview is not operational and should not be used for support decisions.
Latest weather observations around

Emigrant Gap, Blue Canyon Nyack Airport (KBLU)

Using English Units (Switch to International System of Units)
Date/ Time (PDT) Wind (mph) Vis. (mi) Weather Sky Cond. Temp (°F) Rel. Humidity Wind Chill (°F) Heat Index (°F) Pressure Precip. (in)
Air Dwpt 6 hour Altimeter (inHg) Sea level (inHg) 1 hr 3 hr 6 hr
Max Min
Aug 21 12:52 W 6 10 Clear CLR 75 35     23%   73 30.18 29.88      
Aug 21 11:52 W 6 10 Clear CLR 74 32     21%   72 30.19 29.91      
Aug 21 10:52 W 6 10 Clear CLR 74 26     17%   72 30.19 29.91      
Aug 21 09:52 3 10 Clear CLR 73 25     17%   71 30.19 29.92      
Notice The following observation data may not be complete
Aug 21 08:52 Calm 10 Clear CLR   24      %     30.19 29.92      
Aug 21 07:52 N 3 10 Clear CLR 68        %     30.19 29.93      
Notice The following observation data may not be complete
Aug 21 06:52 Calm 10 Clear CLR   19      %     30.18 29.91      
Notice The following observation data may not be complete
Aug 21 05:52 Calm 10 Clear CLR   16      %     30.17 29.89      
Notice The following observation data may not be complete
Aug 21 04:52 ENE 3 10 Clear CLR   18      %     30.17 29.87      
Notice The following observation data may not be complete
Aug 21 03:52 NNE 6 10 Clear CLR   18      %     30.18 29.88      
Notice The following observation data may not be complete
Aug 21 02:52 Calm 10 Clear CLR   19      %     30.18 29.88      
Aug 21 01:52 NNE 6 10 Clear CLR 65 25     22%     30.19 29.91      
Notice The following observation data may not be complete
Aug 21 00:52 N 5 10 Clear CLR   32      %     30.21 29.92      
Aug 20 23:52 NE 5 10 Clear CLR 66 35     32%     30.21 29.93      
Aug 20 22:52 Calm 10 Clear CLR 63 47     56%     30.22 29.95      
Aug 20 21:52 6 10 Clear CLR 63 48     58%     30.21 29.96      
Aug 20 20:52 NW 3 10 Clear CLR 64 47     54%     30.2 29.95      
Aug 20 19:52 Calm 10 Clear CLR 64 47     54%     30.2 29.96      
Aug 20 18:52 W 5 10 Clear CLR 68 48     49%     30.2 29.95      
Aug 20 17:52 WSW 8 10 Clear CLR 71 47     42%   70 30.21 29.93      
Aug 20 16:52 W 8 10 Clear CLR 74 46     37%   73 30.2 29.92      
Aug 20 15:52 SSW 7 10 Clear CLR 74 46     37%   73 30.2 29.92      
Aug 20 14:52 SSW 8 10 Clear CLR 76 42     30%   75 30.2 29.91      
Aug 20 13:52 W 9 10 Clear CLR 75 46     36%   74 30.21 29.93      
Aug 20 12:52 S 7 10 Clear CLR 74 40     29%   72 30.22 29.94      
Aug 20 11:52 S 8 10 Clear CLR 72 43     35%   71 30.22 29.95      
Aug 20 10:52 S 8 10 Clear CLR 70 42     36%     30.22 29.95      
Aug 20 09:52 6 10 Clear CLR 69 43     39%     30.21 29.96      
Aug 20 08:52 SSE 5 10 Clear CLR 67 45     45%     30.2 29.96      
Aug 20 07:52 3 10 Clear CLR 66 43     43%     30.2 29.94      
Notice The following observation data may not be complete
Aug 20 06:52 Calm 10 Clear CLR   41      %     30.18 29.91      
Notice The following observation data may not be complete
Aug 20 05:52 Calm 10 Clear CLR   39      %     30.17 29.9      
Aug 20 04:52 Calm 10 Clear CLR 63 38     40%     30.17 29.9      
Notice The following observation data may not be complete
Aug 20 03:52 Calm 10 Clear CLR   36      %     30.18 29.9      
Aug 20 02:52 ENE 3 10 Clear CLR 64 37     37%     30.17 29.89      
Notice The following observation data may not be complete
Aug 20 01:52 Calm 10 Clear CLR   36      %     30.17 29.89      
Aug 20 00:52 ENE 3 10 Clear CLR 64 36     35%     30.17 29.89      
Aug 19 23:52 ENE 3 10 Clear CLR 63 41     45%     30.18 29.91      
Aug 19 22:52 NE 3 10 Clear   63 44     50%     30.18 29.91      
Aug 19 21:52 NE 3 10 Clear CLR 63 47     56%     30.18 29.93      
Aug 19 20:52 Calm 10 Clear CLR 63 46     54%     30.17 29.93      
Aug 19 19:52 Calm 10 Clear CLR 65 47     52%     30.17 29.93      
Aug 19 18:52 SW 6 10 Clear CLR 69 46     44%     30.17 29.92      
Aug 19 17:52 W 9 10 Clear CLR 71 44     38%   70 30.17 29.92      
Aug 19 16:52   10 Clear CLR 73 46     38%   72 30.17 29.91      
Aug 19 15:52 5 10 Clear CLR 74 45     36%   73 30.17 29.9      
Aug 19 14:52 SSW 8 10 Clear CLR 74 44     34%   73 30.18 29.9      
Aug 19 13:52 SW 9 10 Clear CLR 73 44     35%   72 30.17 29.9      
Aug 19 12:52 SSW 8 10 Clear CLR 73 43     34%   72 30.17 29.9      
Aug 19 11:52 S 10 10 Clear CLR 71 39     31%   69 30.18 29.91      
Aug 19 10:52 S 10 10 Clear CLR 70 43     38%     30.17 29.91      
Aug 19 09:52 SSE 9 10 Clear CLR 68 46     45%     30.17 29.91      
Aug 19 08:52 6 10 Clear CLR 67 48     51%     30.15 29.91      
Aug 19 07:52 Calm 10 Clear CLR 63 49     60%     30.14 29.91      
Aug 19 06:52 SE 3 10 Clear CLR 61 47     60%     30.14 29.88      
Aug 19 05:52 SE 5 10 Clear CLR 61 47     60%     30.13 29.87      
Aug 19 04:52 SE 3 10 Clear CLR 61 46     58%     30.12 29.85      
Aug 19 03:52 SE 5 10 Clear CLR 62 46     56%     30.12 29.85      
Aug 19 02:52 SE 3 10 Clear CLR 62 46     56%     30.12 29.85      
Aug 19 01:52 SE 3 10 Clear CLR 62 46     56%     30.12 29.84      
Aug 19 00:52 SE 3 10 Clear CLR 62 45     53%     30.12 29.85      
Aug 18 23:52 SE 3 10 Clear CLR 63 45     52%     30.12 29.84      
Aug 18 22:52 3 10 Clear CLR 63 48     58%     30.11 29.84      
Aug 18 21:52 ESE 3 10 Clear CLR 63 48     58%     30.1 29.84      
Aug 18 20:52 Calm 10 Clear CLR 62 47     58%     30.09 29.83      
Aug 18 19:52 Calm 10 Clear CLR 65 47     52%     30.08 29.81      
Aug 18 18:52 5 10 Clear CLR 70 44     39%     30.08 29.81      
Aug 18 17:52 7 10 Clear CLR 71 43     36%   70 30.09 29.81      
Aug 18 16:52 S 10 10 Clear CLR 73 45     37%   72 30.09 29.8      
Aug 18 15:52 SSW 8 10 Clear CLR 73 45     37%   72 30.09 29.8      
Aug 18 14:52 7 10 Clear CLR 73 45     37%   72 30.09 29.8      
Aug 18 13:52 S 9 10 Clear CLR 74 47     38%   73 30.1 29.81      
May 14 21:52 Calm 10 Clear CLR 51 47     86%     30.05 29.89      
May 14 10:52 7 10 Mostly Clear FEW055 60 34     37%     30.06 29.89      
May 13 09:52 Calm 10 Clear   54 39     57%     30.06 29.92      
May 12 18:52 5 10 Cloudy OVC090 53 38     56%     29.98 29.86      
May 11 21:52 7 10 Clear CLR 47 25     42% 44   29.92 29.79      
May 11 17:52 NNE 10 10 Clear CLR 56 20     24%     29.91 29.75      
May 11 15:52 NNE 10 10 Clear CLR 57 17     21%     29.91 29.75      
Jun 12 01:33 SSE 3 1.25 Light Snow and Fog/Mist BKN003 OVC007 33 33     100% 30   29.96   0    
Jun 12 01:18 SSW 3 2.5 Light Snow and Fog/Mist OVC004 33 33     100% 30   29.96   0    
Jun 11 17:08 6 5 Fog/Mist SCT004 BKN013 OVC034 36 35     96% 31   29.93   0    
Jun 11 15:52 W 7 2.5 Light Snow and Fog/Mist FEW010 BKN018 OVC049 36 34     92% 30   29.94 29.91 0    
Jun 11 13:02   10 Mostly Cloudy FEW022 SCT029 BKN050 42 32     67%     29.9        
Jun 11 12:52 SSW 10 10 Clear   42 31     64% 36   29.9 29.84      
Jun 11 09:59 5 10 Cloudy FEW019 BKN028 OVC035 40 33     76% 37            
Jun 11 09:42 S 9 10 Mostly Cloudy FEW020 BKN028 BKN034 39 33     79% 33   29.87        
Jun 11 04:52 5 2.5 Fog/Mist OVC002 38 38     100% 34     29.78      
Jun 11 02:52 S 6 0.75 Fog/Mist VV002 39 39     100% 35     29.79      
Jun 11 00:43 S 7 1.25 Fog/Mist OVC002 40 40     100% 35   29.91        
Jun 10 22:52 S 9 10 Cloudy OVC005 42 41     96% 37   29.93 29.83      
Jun 10 03:00 SSE 11 3 Fog/Mist BKN002 OVC009 44 44     100% 38   29.95        
Jun 10 02:14 SSE 10 1.25 Fog/Mist OVC002 44 44     100% 39   29.97        
Jun 09 21:27 S 9 1.75 Fog/Mist BKN002 BKN006 OVC016 47 46     97% 43   29.99        
Jun 09 18:52 SSW 11 10 Cloudy SCT007 BKN010 OVC017 49 47     93% 44     29.87      
Jun 09 13:52 SW 10 0.25 Clear   48 48     100% 43   30.01 29.91 0    
Jun 09 10:52 SSW 9 0.25 Fog VV002 47 47     100% 43   30 29.91     0
Jun 09 06:35 S 9 0.25 Fog VV002 46 46     100% 41   30.01        
Jun 09 05:52 S 7 0.25 Fog VV001 46 46     100% 42   30.01 29.91      
Jun 09 03:52 S 6 0.25 Fog VV002 46 46     100% 43   30.03 29.94      
Jun 09 02:52 S 7 0.5 Fog VV002 46 46     100% 42   30.04 29.95      
Notice The following observation data may not be complete
Jun 09 02:08   1.5 Fog/Mist OVC002          %              
Jun 09 01:48 SSW 5 0.75 Fog/Mist VV002 46 46     100% 44   30.05        
Jun 08 18:52 S 7 0.25 Fog VV002 48 48     100% 45   30.09 29.99      
Notice The following observation data may not be complete
Jun 08 17:42   1.25 Fog/Mist OVC002          %              
Jun 08 11:52   1.75 Light Rain and Fog/Mist SCT006 BKN010 OVC021 43 42     97%     30.12 30.02 0    
Notice The following observation data may not be complete
Jun 08 11:20   2 Rain and Fog/Mist FEW005 SCT012 OVC021          %         0    
Jun 07 23:52 SE 7 10 Clear CLR 51 39     63%       29.83      
Jun 07 22:52 SE 7 10 Clear CLR 51 40     65%     30.05 29.85      
Jun 07 20:52 S 8 10 Clear CLR 57 38     49%     30.04 29.82      
Jun 05 21:52 Calm 10 Clear CLR 59 32     36%       29.87